Location: Lake Sonoma
(38.7200°N, 123.0564°W)
Time: 23:27:29
(UTC-07:00)

ISS - Visible Passes

Search period start: 01 September 2015 00:00
Search period end: 11 September 2015 00:00
Orbit: 400 x 402 km, 51.6° (Epoch: 01 September)

Date Brightness Start Highest point End Pass type
(mag) Time Alt. Az. Time Alt. Az. Time Alt. Az.
07 Sep -0.4 05:29:27 10° SSE 05:30:30 11° SE 05:31:42 10° ESE visible
08 Sep -2.8 06:10:07 10° SW 06:13:18 58° SE 06:16:32 10° ENE visible
09 Sep -1.6 05:18:45 20° S 05:20:07 27° SE 05:22:58 10° ENE visible
10 Sep -0.3 04:27:59 12° ESE 04:27:59 12° ESE 04:28:46 10° E visible
10 Sep -3.1 06:00:36 15° WSW 06:03:07 56° NW 06:06:20 10° NE visible
